User: anonymous   Login
Location: ??
(31.9467°N, 34.8903°E)
Time: 13:28:22
(UTC+00:00)
Language:

Atlas Centaur 2 - Orbit

View from above orbital plane
View from above orbital plane
View from above satellite
View from above satellite

Ground track
Ground track

The orbit data is extracted from the following two-line orbital elements,

1 00694U 63047A   21016.70521854  .00000482  00000-0  46694-4 0  9998
2 00694  30.3582 156.5492 0585429 238.5131 115.6976 14.02739082867068
Epoch (UTC): 16 January 2021 16:55:30
Eccentricity: 0.0585429
inclination: 30.3582°
perigee height: 459 km
apogee height: 1309 km
right ascension of ascending node: 156.5492°
argument of perigee: 238.5131°
revolutions per day: 14.02739082
mean anomaly at epoch: 115.6976°
orbit number at epoch: 86706

The dashed part of the orbit path shows where the satellite is in the earth's shadow,  

DLR